Hourly Weather Kozly 2

Today, 22 October, Thursday

Time Temperature Precipitation Wind Pressure Humidity
00:00 +5°C° 0 mm 2 mps 743 mmHg 95%
01:00 +5°C° 0 mm 2 mps 743 mmHg 94%
02:00 +4°C° 0 mm 3 mps 743 mmHg 93%
03:00 +5°C° 0.3 mm 3 mps 742 mmHg 93%
04:00 +5°C° 0.3 mm 3 mps 742 mmHg 94%
05:00 +5°C° 0.3 mm 4 mps 742 mmHg 94%
06:00 +6°C° 0.4 mm 4 mps 741 mmHg 93%
07:00 +6°C° 0.4 mm 5 mps 741 mmHg 93%
08:00 +7°C° 0.4 mm 5 mps 741 mmHg 92%
09:00 +8°C° 0.1 mm 5 mps 740 mmHg 88%
10:00 +9°C° 0.1 mm 5 mps 740 mmHg 83%
11:00 +10°C° 0.1 mm 6 mps 740 mmHg 79%
12:00 +10°C° 0 mm 6 mps 740 mmHg 78%
13:00 +11°C° 0 mm 6 mps 740 mmHg 76%
14:00 +13°C° 0 mm 6 mps 739 mmHg 74%
15:00 +13°C° 0 mm 6 mps 739 mmHg 76%
16:00 +11°C° 0 mm 6 mps 739 mmHg 79%
17:00 +12°C° 0 mm 5 mps 739 mmHg 81%
18:00 +12°C° 0 mm 5 mps 739 mmHg 81%
19:00 +11°C° 0 mm 6 mps 739 mmHg 81%
20:00 +11°C° 0 mm 6 mps 740 mmHg 82%
21:00 +11°C° 0 mm 6 mps 740 mmHg 83%
22:00 +11°C° 0 mm 6 mps 740 mmHg 84%
23:00 +12°C° 0 mm 5 mps 740 mmHg 86%

Tomorrow, 23 October, Friday

Time Temperature Precipitation Wind Pressure Humidity
00:00 +10°C° 0 mm 5 mps 741 mmHg 88%
01:00 +11°C° 0 mm 4 mps 741 mmHg 91%
02:00 +10°C° 0 mm 4 mps 741 mmHg 93%
03:00 +10°C° 0 mm 4 mps 741 mmHg 94%
04:00 +10°C° 0 mm 4 mps 741 mmHg 95%
05:00 +9°C° 0 mm 3 mps 741 mmHg 95%
06:00 +10°C° 0 mm 4 mps 740 mmHg 95%
07:00 +10°C° 0 mm 4 mps 740 mmHg 95%
08:00 +10°C° 0 mm 4 mps 740 mmHg 94%
09:00 +10°C° 0 mm 5 mps 740 mmHg 89%
10:00 +12°C° 0 mm 5 mps 739 mmHg 84%
11:00 +13°C° 0 mm 6 mps 739 mmHg 79%
12:00 +13°C° 0.6 mm 6 mps 739 mmHg 83%
13:00 +13°C° 0.6 mm 5 mps 738 mmHg 86%
14:00 +12°C° 0.6 mm 5 mps 738 mmHg 90%
15:00 +12°C° 0.4 mm 5 mps 738 mmHg 89%
16:00 +12°C° 0.4 mm 5 mps 738 mmHg 89%
17:00 +12°C° 0.4 mm 4 mps 738 mmHg 89%
18:00 +12°C° 0 mm 4 mps 738 mmHg 90%
19:00 +11°C° 0 mm 4 mps 738 mmHg 91%
20:00 +11°C° 0 mm 3 mps 739 mmHg 93%
21:00 +10°C° 0 mm 3 mps 739 mmHg 93%
22:00 +9°C° 0 mm 3 mps 739 mmHg 93%
23:00 +9°C° 0 mm 3 mps 739 mmHg 93%

Day after tomorrow, 24 October, Saturday

Time Temperature Precipitation Wind Pressure Humidity
00:00 +8°C° 0 mm 3 mps 739 mmHg 93%
01:00 +8°C° 0 mm 3 mps 740 mmHg 94%
02:00 +7°C° 0 mm 2 mps 740 mmHg 95%
03:00 +7°C° 0 mm 2 mps 740 mmHg 95%
04:00 +7°C° 0 mm 2 mps 740 mmHg 95%
05:00 +7°C° 0 mm 2 mps 740 mmHg 96%
06:00 +7°C° 0 mm 2 mps 740 mmHg 96%
07:00 +7°C° 0 mm 2 mps 740 mmHg 96%
08:00 +7°C° 0 mm 2 mps 740 mmHg 96%
09:00 +8°C° 0 mm 2 mps 740 mmHg 90%
10:00 +9°C° 0 mm 2 mps 741 mmHg 85%
11:00 +10°C° 0 mm 2 mps 741 mmHg 80%
12:00 +12°C° 0 mm 2 mps 741 mmHg 78%
13:00 +12°C° 0 mm 2 mps 740 mmHg 77%
14:00 +12°C° 0 mm 2 mps 740 mmHg 76%
15:00 +12°C° 0.2 mm 2 mps 740 mmHg 81%
16:00 +10°C° 0.2 mm 2 mps 740 mmHg 86%
17:00 +9°C° 0.2 mm 2 mps 740 mmHg 91%
18:00 +9°C° 0.3 mm 2 mps 740 mmHg 92%
19:00 +9°C° 0.3 mm 2 mps 740 mmHg 93%
20:00 +8°C° 0.3 mm 2 mps 740 mmHg 94%
21:00 +8°C° 0 mm 2 mps 740 mmHg 92%
22:00 +8°C° 0 mm 3 mps 740 mmHg 91%
23:00 +8°C° 0 mm 3 mps 740 mmHg 89%

, 25 October, Sunday

Time Temperature Precipitation Wind Pressure Humidity
00:00 +8°C° 0 mm 3 mps 741 mmHg 90%
01:00 +9°C° 0 mm 3 mps 741 mmHg 90%
02:00 +9°C° 0 mm 3 mps 741 mmHg 90%
03:00 +9°C° 0 mm 3 mps 742 mmHg 89%
04:00 +9°C° 0 mm 3 mps 742 mmHg 88%
05:00 +8°C° 0 mm 3 mps 742 mmHg 87%
06:00 +8°C° 0 mm 3 mps 743 mmHg 88%
07:00 +8°C° 0 mm 3 mps 743 mmHg 89%
08:00 +7°C° 0 mm 3 mps 744 mmHg 90%
09:00 +8°C° 0 mm 3 mps 744 mmHg 86%
10:00 +9°C° 0 mm 3 mps 745 mmHg 82%
11:00 +10°C° 0 mm 3 mps 745 mmHg 78%
12:00 +10°C° 0 mm 3 mps 745 mmHg 77%
13:00 +10°C° 0 mm 3 mps 746 mmHg 76%
14:00 +11°C° 0 mm 3 mps 746 mmHg 75%
15:00 +10°C° 0 mm 2 mps 746 mmHg 76%
16:00 +10°C° 0 mm 2 mps 746 mmHg 78%
17:00 +11°C° 0 mm 1 mps 746 mmHg 79%
18:00 +11°C° 0 mm 1 mps 746 mmHg 80%
19:00 +10°C° 0 mm 1 mps 747 mmHg 82%
20:00 +10°C° 0 mm 1 mps 747 mmHg 83%
21:00 +10°C° 0 mm 1 mps 747 mmHg 85%
22:00 +9°C° 0 mm 2 mps 747 mmHg 86%
23:00 +8°C° 0 mm 2 mps 748 mmHg 88%

25 October, Sunday

Time Temperature Precipitation Wind Pressure Humidity
00:00 +8°C° 0 mm 3 mps 741 mmHg 90%
01:00 +9°C° 0 mm 3 mps 741 mmHg 90%
02:00 +9°C° 0 mm 3 mps 741 mmHg 90%
03:00 +9°C° 0 mm 3 mps 742 mmHg 89%
04:00 +9°C° 0 mm 3 mps 742 mmHg 88%
05:00 +8°C° 0 mm 3 mps 742 mmHg 87%
06:00 +8°C° 0 mm 3 mps 743 mmHg 88%
07:00 +8°C° 0 mm 3 mps 743 mmHg 89%
08:00 +7°C° 0 mm 3 mps 744 mmHg 90%
09:00 +8°C° 0 mm 3 mps 744 mmHg 86%
10:00 +9°C° 0 mm 3 mps 745 mmHg 82%
11:00 +10°C° 0 mm 3 mps 745 mmHg 78%
12:00 +10°C° 0 mm 3 mps 745 mmHg 77%
13:00 +10°C° 0 mm 3 mps 746 mmHg 76%
14:00 +11°C° 0 mm 3 mps 746 mmHg 75%
15:00 +10°C° 0 mm 2 mps 746 mmHg 76%
16:00 +10°C° 0 mm 2 mps 746 mmHg 78%
17:00 +11°C° 0 mm 1 mps 746 mmHg 79%
18:00 +11°C° 0 mm 1 mps 746 mmHg 80%
19:00 +10°C° 0 mm 1 mps 747 mmHg 82%
20:00 +10°C° 0 mm 1 mps 747 mmHg 83%
21:00 +10°C° 0 mm 1 mps 747 mmHg 85%
22:00 +9°C° 0 mm 2 mps 747 mmHg 86%
23:00 +8°C° 0 mm 2 mps 748 mmHg 88%

26 October, Monday

Time Temperature Precipitation Wind Pressure Humidity
00:00 +8°C° 0 mm 2 mps 748 mmHg 89%
01:00 +8°C° 0 mm 2 mps 748 mmHg 90%
02:00 +7°C° 0 mm 2 mps 748 mmHg 92%
03:00 +7°C° 0 mm 2 mps 748 mmHg 92%
04:00 +7°C° 0 mm 2 mps 748 mmHg 93%
05:00 +6°C° 0 mm 2 mps 748 mmHg 93%
06:00 +6°C° 0 mm 2 mps 748 mmHg 93%
07:00 +6°C° 0 mm 2 mps 748 mmHg 93%
08:00 +6°C° 0 mm 2 mps 748 mmHg 92%
09:00 +7°C° 0 mm 3 mps 749 mmHg 87%
10:00 +7°C° 0 mm 4 mps 749 mmHg 81%
11:00 +8°C° 0 mm 4 mps 749 mmHg 75%
12:00 +8°C° 0 mm 4 mps 749 mmHg 76%
13:00 +8°C° 0 mm 4 mps 748 mmHg 77%
14:00 +8°C° 0 mm 4 mps 748 mmHg 78%
15:00 +8°C° 0 mm 4 mps 748 mmHg 79%
16:00 +9°C° 0 mm 3 mps 748 mmHg 81%
17:00 +8°C° 0 mm 3 mps 748 mmHg 83%
18:00 +8°C° 0 mm 3 mps 748 mmHg 85%
19:00 +6°C° 0 mm 4 mps 747 mmHg 87%
20:00 +6°C° 0 mm 4 mps 747 mmHg 89%
21:00 +6°C° 0 mm 4 mps 747 mmHg 90%
22:00 +6°C° 0 mm 4 mps 747 mmHg 90%
23:00 +6°C° 0 mm 4 mps 747 mmHg 90%

27 October, Tuesday

Time Temperature Precipitation Wind Pressure Humidity
00:00 +6°C° 0 mm 4 mps 747 mmHg 90%
01:00 +6°C° 0 mm 4 mps 747 mmHg 89%
02:00 +6°C° 0 mm 4 mps 746 mmHg 88%
03:00 +6°C° 0 mm 4 mps 746 mmHg 88%
04:00 +6°C° 0 mm 4 mps 746 mmHg 87%
05:00 +6°C° 0 mm 4 mps 746 mmHg 87%
06:00 +7°C° 0.1 mm 4 mps 746 mmHg 87%
07:00 +7°C° 0.1 mm 5 mps 746 mmHg 88%
08:00 +7°C° 0.1 mm 5 mps 746 mmHg 88%
09:00 +7°C° 0.2 mm 5 mps 746 mmHg 88%
10:00 +7°C° 0.2 mm 5 mps 746 mmHg 88%
11:00 +8°C° 0.2 mm 5 mps 746 mmHg 88%
12:00 +8°C° 0.1 mm 5 mps 746 mmHg 85%
13:00 +9°C° 0.1 mm 5 mps 746 mmHg 82%
14:00 +9°C° 0.1 mm 5 mps 746 mmHg 78%
15:00 +9°C° 0 mm 5 mps 746 mmHg 82%
16:00 +8°C° 0 mm 5 mps 746 mmHg 85%
17:00 +7°C° 0 mm 4 mps 745 mmHg 89%
18:00 +7°C° 0 mm 4 mps 746 mmHg 90%
19:00 +7°C° 0 mm 4 mps 746 mmHg 91%
20:00 +6°C° 0 mm 4 mps 746 mmHg 92%
21:00 +8°C° 0 mm 3 mps 746 mmHg 92%
22:00 +8°C° 0 mm 3 mps 746 mmHg 91%
23:00 +9°C° 0 mm 3 mps 746 mmHg 90%
Show more